Location: Arbon
(43.0005°N, 0.7472°E)
Time: 16:13:12
(UTC+00:00)

Cosmos 2082 - Pass Details

Date: 07 August 2020
Orbit: 834 x 855 km, 71.0° (Epoch: 22 September)

Event Time Altitude Azimuth Distance (km) Brightness Sun altitude
Exits shadow 01:52:45 48° 142° (SE) 1,087 4.0 -25.5°
Maximum altitude 01:53:40 53° 109° (ESE) 1,018 4.1 -25.4°
Drops below altitude 10° 01:59:07 10° 33° (NNE) 2,451 7.2 -24.9°
Sets 02:01:36 0° 29° (NNE) 3,389 8.2 -24.7°
